Preview of NWS' New Version of Forecast
This preview is not operational and should not be used for support decisions.

Regional Weather Roundup (RWR)

Issued by National Weather Service (NWS)

                            
000
ASUS43 KBIS 220202
RWRND 

NORTH DAKOTA REGIONAL WEATHER ROUNDUP
NATIONAL WEATHER SERVICE BISMARCK ND
900 PM CDT SUN APR 21 2019

NOTE: "FAIR" INDICATES FEW OR NO CLOUDS BELOW 12,000 FEET WITH NO
SIGNIFICANT WEATHER AND/OR OBSTRUCTIONS TO VISIBILITY.


NDZ001>003-009>011-017-220300-
NORTHWEST NORTH DAKOTA
  
CITY           SKY/WX    TMP DP  RH WIND       PRES   REMARKS
WILLISTON      PTCLDY    54  22  28 N9        30.14R                  
MINOT          PTCLDY    56  34  43 CALM      30.09R                  
MINOT AFB      PTCLDY    57  37  47 N6        30.08R                  
$$
 
NDZ018>021-031>035-040>046-220300-
SOUTHWEST NORTH DAKOTA
  
CITY           SKY/WX    TMP DP  RH WIND       PRES   REMARKS
BISMARCK       CLOUDY    54  34  46 NE5       30.11R                  
DICKINSON      MOCLDY    50  41  71 NW6       30.12R                  
GARRISON         N/A     54  35  48 CALM      30.10R                  
HETTINGER ARPT CLOUDY    50  35  56 N7        30.13R                  
$$
 
NDZ004>008-012>016-024-026-027-054-220300-
NORTHEAST NORTH DAKOTA
  
CITY           SKY/WX    TMP DP  RH WIND       PRES   REMARKS
GRAND FORKS    CLOUDY    50  37  61 N5        30.06S                  
GRND FRKS AFB  MOCLDY    61  30  31 N6        30.09F                  
DEVILS LAKE    CLOUDY    50  39  66 W6        30.10R                  
$$
 
NDZ022-023-025-028>030-036>039-047>053-220300-
SOUTHEAST NORTH DAKOTA
  
CITY           SKY/WX    TMP DP  RH WIND       PRES   REMARKS
FARGO          CLOUDY    54  40  59 NE8       30.05R                  
JAMESTOWN      CLOUDY    50  43  77 N6        30.07R                  
$$